When you browse on this site, cookies collect data to enhance your experience and personalize the content and advertising you see.
Visit our Privacy Policy to learn more. By continuing to use the site, you agree to this use of cookies and data.
  • In Sweden
  • List of Countries
  • For 7 days
  • Water Temperature
  • Weather Map
  • Weather Widgets
  • user-avatar
    Login

    Hourly Weather Provedischi

    Today, 16 September, Monday

    Time Temperature Precipitation Wind Pressure Humidity
    00:00 +10°C° 0.1 mm 4 mps 738 mmHg 92%
    01:00 +8°C° 0.1 mm 4 mps 738 mmHg 91%
    02:00 +8°C° 0.1 mm 4 mps 738 mmHg 90%
    03:00 +8°C° 0.1 mm 4 mps 738 mmHg 90%
    04:00 +7°C° 0.1 mm 5 mps 738 mmHg 90%
    05:00 +7°C° 0.1 mm 5 mps 738 mmHg 91%
    06:00 +8°C° 0 mm 5 mps 738 mmHg 90%
    07:00 +8°C° 0 mm 5 mps 738 mmHg 89%
    08:00 +9°C° 0 mm 5 mps 738 mmHg 89%
    09:00 +10°C° 0.2 mm 6 mps 738 mmHg 85%
    10:00 +10°C° 0.2 mm 6 mps 737 mmHg 82%
    11:00 +11°C° 0.2 mm 6 mps 737 mmHg 78%
    12:00 +12°C° 0.4 mm 7 mps 737 mmHg 77%
    13:00 +12°C° 0.4 mm 7 mps 737 mmHg 75%
    14:00 +14°C° 0.4 mm 7 mps 737 mmHg 73%
    15:00 +12°C° 0.6 mm 7 mps 737 mmHg 77%
    16:00 +11°C° 0.6 mm 6 mps 738 mmHg 81%
    17:00 +10°C° 0.6 mm 6 mps 738 mmHg 86%
    18:00 +9°C° 0.1 mm 6 mps 738 mmHg 87%
    19:00 +9°C° 0.1 mm 5 mps 738 mmHg 89%
    20:00 +8°C° 0.1 mm 5 mps 738 mmHg 90%
    21:00 +8°C° 0 mm 5 mps 738 mmHg 90%
    22:00 +7°C° 0 mm 5 mps 738 mmHg 90%
    23:00 +7°C° 0 mm 5 mps 738 mmHg 90%

    Tomorrow, 17 September, Tuesday

    Time Temperature Precipitation Wind Pressure Humidity
    00:00 +6°C° 0 mm 4 mps 738 mmHg 90%
    01:00 +6°C° 0 mm 4 mps 738 mmHg 90%
    02:00 +6°C° 0 mm 4 mps 738 mmHg 89%
    03:00 +6°C° 0 mm 4 mps 738 mmHg 89%
    04:00 +5°C° 0 mm 4 mps 738 mmHg 89%
    05:00 +5°C° 0 mm 4 mps 738 mmHg 89%
    06:00 +6°C° 0.1 mm 4 mps 738 mmHg 90%
    07:00 +6°C° 0.1 mm 4 mps 738 mmHg 90%
    08:00 +7°C° 0.1 mm 4 mps 738 mmHg 91%
    09:00 +7°C° 0.1 mm 4 mps 738 mmHg 89%
    10:00 +8°C° 0.1 mm 4 mps 738 mmHg 88%
    11:00 +8°C° 0.1 mm 4 mps 738 mmHg 86%
    12:00 +8°C° 0.1 mm 4 mps 738 mmHg 84%
    13:00 +10°C° 0.1 mm 4 mps 738 mmHg 81%
    14:00 +10°C° 0.1 mm 4 mps 737 mmHg 78%
    15:00 +10°C° 0.1 mm 4 mps 737 mmHg 79%
    16:00 +10°C° 0.1 mm 4 mps 737 mmHg 79%
    17:00 +9°C° 0.1 mm 3 mps 737 mmHg 79%
    18:00 +8°C° 0 mm 3 mps 737 mmHg 83%
    19:00 +7°C° 0 mm 2 mps 737 mmHg 88%
    20:00 +7°C° 0 mm 1 mps 737 mmHg 92%
    21:00 +7°C° 0 mm 1 mps 737 mmHg 93%
    22:00 +6°C° 0 mm 1 mps 737 mmHg 93%
    23:00 +6°C° 0 mm 1 mps 736 mmHg 94%

    Day after tomorrow, 18 September, Wednesday

    Time Temperature Precipitation Wind Pressure Humidity
    00:00 +6°C° 0 mm 1 mps 736 mmHg 94%
    01:00 +6°C° 0 mm 1 mps 737 mmHg 94%
    02:00 +6°C° 0 mm 1 mps 737 mmHg 94%
    03:00 +6°C° 0.2 mm 1 mps 737 mmHg 95%
    04:00 +6°C° 0.2 mm 1 mps 737 mmHg 96%
    05:00 +6°C° 0.2 mm 1 mps 737 mmHg 97%
    06:00 +5°C° 0.4 mm 2 mps 737 mmHg 95%
    07:00 +6°C° 0.4 mm 2 mps 738 mmHg 94%
    08:00 +7°C° 0.4 mm 2 mps 738 mmHg 92%
    09:00 +8°C° 0 mm 2 mps 739 mmHg 86%
    10:00 +9°C° 0 mm 3 mps 739 mmHg 80%
    11:00 +10°C° 0 mm 3 mps 740 mmHg 74%
    12:00 +10°C° 0.2 mm 3 mps 740 mmHg 75%
    13:00 +11°C° 0.2 mm 3 mps 740 mmHg 75%
    14:00 +11°C° 0.2 mm 3 mps 740 mmHg 75%
    15:00 +10°C° 0.2 mm 3 mps 741 mmHg 78%
    16:00 +10°C° 0.2 mm 3 mps 741 mmHg 81%
    17:00 +10°C° 0.2 mm 3 mps 742 mmHg 85%
    18:00 +9°C° 0.1 mm 2 mps 742 mmHg 88%
    19:00 +8°C° 0.1 mm 2 mps 743 mmHg 92%
    20:00 +7°C° 0.1 mm 2 mps 743 mmHg 95%
    21:00 +6°C° 0 mm 2 mps 744 mmHg 95%
    22:00 +6°C° 0 mm 2 mps 744 mmHg 96%
    23:00 +5°C° 0 mm 2 mps 745 mmHg 96%

    19 September, Thursday

    Time Temperature Precipitation Wind Pressure Humidity
    00:00 +5°C° 0 mm 2 mps 745 mmHg 96%
    01:00 +4°C° 0 mm 2 mps 746 mmHg 96%
    02:00 +4°C° 0 mm 2 mps 746 mmHg 95%
    03:00 +3°C° 0 mm 2 mps 746 mmHg 96%
    04:00 +3°C° 0 mm 2 mps 747 mmHg 96%
    05:00 +2°C° 0 mm 2 mps 747 mmHg 96%
    06:00 +3°C° 0 mm 2 mps 747 mmHg 94%
    07:00 +4°C° 0 mm 2 mps 748 mmHg 92%
    08:00 +5°C° 0 mm 2 mps 748 mmHg 90%
    09:00 +6°C° 0.1 mm 2 mps 749 mmHg 86%
    10:00 +6°C° 0.1 mm 2 mps 749 mmHg 83%
    11:00 +7°C° 0.1 mm 2 mps 750 mmHg 79%
    12:00 +8°C° 0.2 mm 2 mps 750 mmHg 77%
    13:00 +8°C° 0.2 mm 2 mps 750 mmHg 74%
    14:00 +8°C° 0.2 mm 2 mps 750 mmHg 72%
    15:00 +8°C° 0.1 mm 2 mps 750 mmHg 74%
    16:00 +8°C° 0.1 mm 2 mps 750 mmHg 76%
    17:00 +7°C° 0.1 mm 2 mps 751 mmHg 78%
    18:00 +6°C° 0 mm 2 mps 751 mmHg 82%
    19:00 +5°C° 0 mm 2 mps 751 mmHg 87%
    20:00 +5°C° 0 mm 1 mps 752 mmHg 92%
    21:00 +4°C° 0 mm 1 mps 752 mmHg 93%
    22:00 +3°C° 0 mm 1 mps 752 mmHg 94%
    23:00 +3°C° 0 mm 1 mps 752 mmHg 95%

    20 September, Friday

    Time Temperature Precipitation Wind Pressure Humidity
    00:00 +3°C° 0 mm 1 mps 752 mmHg 95%
    01:00 +2°C° 0 mm 1 mps 753 mmHg 95%
    02:00 +2°C° 0 mm 1 mps 753 mmHg 95%
    03:00 +2°C° 0 mm 1 mps 753 mmHg 95%
    04:00 +1°C° 0 mm 1 mps 753 mmHg 95%
    05:00 +1°C° 0 mm 1 mps 753 mmHg 95%
    06:00 +1°C° 0 mm 2 mps 753 mmHg 90%
    07:00 +2°C° 0 mm 2 mps 754 mmHg 85%
    08:00 +4°C° 0 mm 2 mps 754 mmHg 80%
    09:00 +5°C° 0 mm 2 mps 754 mmHg 73%
    10:00 +7°C° 0 mm 3 mps 755 mmHg 66%
    11:00 +9°C° 0 mm 3 mps 755 mmHg 59%
    12:00 +9°C° 0.2 mm 3 mps 755 mmHg 58%
    13:00 +9°C° 0.2 mm 3 mps 755 mmHg 57%
    14:00 +9°C° 0.2 mm 3 mps 755 mmHg 56%
    15:00 +9°C° 0.1 mm 3 mps 755 mmHg 60%
    16:00 +8°C° 0.1 mm 2 mps 755 mmHg 63%
    17:00 +8°C° 0.1 mm 2 mps 755 mmHg 66%
    18:00 +7°C° 0 mm 1 mps 756 mmHg 71%
    19:00 +6°C° 0 mm 1 mps 756 mmHg 76%
    20:00 +4°C° 0 mm 1 mps 756 mmHg 81%
    21:00 +4°C° 0 mm 1 mps 756 mmHg 82%
    22:00 +3°C° 0 mm 1 mps 756 mmHg 83%
    23:00 +3°C° 0 mm 1 mps 756 mmHg 84%

    21 September, Saturday

    Time Temperature Precipitation Wind Pressure Humidity
    00:00 +3°C° 0 mm 1 mps 756 mmHg 82%
    01:00 +3°C° 0 mm 1 mps 756 mmHg 81%
    02:00 +3°C° 0 mm 1 mps 756 mmHg 80%
    03:00 +3°C° 0 mm 2 mps 756 mmHg 82%
    04:00 +3°C° 0 mm 2 mps 756 mmHg 83%
    05:00 +3°C° 0 mm 3 mps 756 mmHg 85%
    06:00 +3°C° 0.1 mm 3 mps 756 mmHg 85%
    07:00 +4°C° 0.1 mm 3 mps 755 mmHg 85%
    08:00 +5°C° 0.1 mm 3 mps 755 mmHg 85%
    09:00 +5°C° 0.5 mm 4 mps 755 mmHg 88%
    10:00 +5°C° 0.5 mm 4 mps 755 mmHg 92%
    11:00 +5°C° 0.5 mm 4 mps 755 mmHg 95%
    12:00 +5°C° 0.6 mm 4 mps 754 mmHg 96%
    13:00 +7°C° 0.6 mm 3 mps 754 mmHg 96%
    14:00 +7°C° 0.6 mm 3 mps 754 mmHg 97%
    15:00 +8°C° 0.6 mm 3 mps 753 mmHg 97%
    16:00 +9°C° 0.6 mm 3 mps 753 mmHg 97%
    17:00 +10°C° 0.6 mm 3 mps 753 mmHg 97%
    18:00 +10°C° 0.1 mm 3 mps 753 mmHg 96%
    19:00 +11°C° 0.1 mm 4 mps 753 mmHg 95%
    20:00 +11°C° 0.1 mm 4 mps 753 mmHg 95%
    21:00 +11°C° 0 mm 4 mps 753 mmHg 95%
    22:00 +10°C° 0 mm 4 mps 753 mmHg 96%
    23:00 +10°C° 0 mm 3 mps 753 mmHg 96%
    Show more